[[{"header":{"parameterUnit":"m.s-1","parameterCategory":1,"la1":30.2992,"la2":30.254,"lo1":-89.0895,"lo2":-89.0443,"dy":0.0025,"dx":0.0025,"nx":19,"ny":19,"refTime":"2026-03-23T03:00:00:Z","depth":0,"parameterNumber":2,"parameterNumberName":"U-component_of_WINDS"},"data":[0,0,0,1.0599,1.06,1.0635,1.0635,1.0713,1.0714,0,0,0,0,0,0,0,0,0,0,0,1.0607,1.0608,1.0599,1.06,1.0635,1.0635,1.0713,1.0714,0,0,0,0,0,0,0,0,0,0,0,1.0607,1.0608,1.0609,1.0601,1.0635,1.0635,1.0713,1.0675,0,0,0,0,0,0,0,0,0,0,1.0636,1.0661,1.0608,1.061,1.0601,1.0635,1.0635,1.0673,1.0678,1.0711,0,1.0744,0,1.073,1.0721,1.0722,0,0,0,1.0588,1.0657,1.0649,1.061,1.0601,1.0635,1.0616,1.0675,1.068,1.0718,1.0745,1.0747,1.0732,1.0722,1.0723,1.0953,1.0955,0,0,1.0586,1.0624,1.0646,1.0654,1.0648,1.0615,1.0617,1.0678,1.0711,1.0745,1.0748,1.0733,1.0723,1.0724,1.0951,1.0953,0,0,0,1.0589,1.0624,1.0613,1.0651,1.0655,1.0616,1.0619,1.0708,1.0702,1.0749,1.0734,1.0723,1.0725,1.0949,1.0952,1.1072,0,0,0,1.0587,1.0625,1.0613,1.0638,1.0654,1.0682,1.0649,1.0698,1.0703,1.0733,1.0723,1.0726,1.0947,1.0951,1.1064,1.1123,0,0,0,1.0599,1.0626,1.0637,1.064,1.0655,1.068,1.0676,1.0698,1.0695,1.0722,1.0726,1.0946,1.095,1.1058,1.1112,1.1194,0,0,0,1.0624,1.0746,1.064,1.077,1.0655,1.0752,1.0675,1.0746,1.0784,1.0724,1.0948,1.0952,1.1056,1.1105,1.1187,1.1271,1.1308,0,0,1.08,1.0768,1.0842,1.0748,1.0873,1.0744,1.0887,1.0887,1.0856,1.0923,1.0928,1.1067,1.1111,1.1193,1.1507,1.1537,0,0,0,1.0911,1.0964,1.0989,1.1024,1.1024,1.1029,1.1001,1.1001,1.1055,1.0897,1.1117,1.1142,1.1189,1.1227,1.1253,1.129,1.0971,1.097,1.097,1.1218,1.1167,1.1285,1.1239,1.1275,1.1243,1.1267,1.1261,1.1203,1.1256,1.1276,1.1472,1.1519,1.1538,1.1577,1.1315,1.1316,1.1316,1.1316,1.1471,1.1539,1.1454,1.1538,1.1485,1.1556,1.153,1.1486,1.1545,1.1454,1.1492,1.1398,1.1573,1.1604,1.1325,1.1323,1.1322,1.1322,1.1321,1.1668,1.1691,1.1685,1.1729,1.1769,1.1718,1.1778,1.1727,1.1681,1.1719,1.1735,1.1732,1.1725,1.1729,1.173,1.1731,1.1731,1.1732,1.1732,1.1874,1.1863,1.1918,1.1925,1.194,1.1953,1.1921,1.1935,1.1938,1.1897,1.1896,1.1834,1.1598,1.154,1.1743,1.1741,1.1739,1.1739,1.1738,1.2152,1.208,1.2165,1.2179,1.2183,1.2225,1.2159,1.2191,1.2195,1.2226,1.2153,1.1987,1.1953,1.1932,1.1884,1.2163,1.2163,1.2163,1.2163,1.2318,1.2294,1.2368,1.2394,1.2414,1.2361,1.246,1.2435,1.2399,1.2399,1.2351,1.2282,1.2263,1.224,1.2213,1.2167,1.2512,1.2512,1.2513,1.2486,1.2461,1.2554,1.2514,1.2512,1.2512,1.2603,1.2638,1.2582,1.2526,1.2398,1.2383,1.2272,1.2238,1.2182,1.214,1.2055,0,0]},{"header":{"parameterUnit":"m.s-1","parameterCategory":1,"la1":30.2992,"la2":30.254,"lo1":-89.0895,"lo2":-89.0443,"dy":0.0025,"dx":0.0025,"nx":19,"ny":19,"refTime":"2026-03-23T03:00:00:Z","depth":0,"parameterNumber":3,"parameterNumberName":"V-component_of_WINDS"},"data":[0,0,0,0.2641,0.2643,0.2754,0.2754,0.2922,0.2924,0,0,0,0,0,0,0,0,0,0,0,0.2625,0.2626,0.264,0.2644,0.2754,0.2754,0.2922,0.2924,0,0,0,0,0,0,0,0,0,0,0,0.2624,0.2626,0.2628,0.2644,0.2754,0.2754,0.2922,0.2829,0,0,0,0,0,0,0,0,0,0,0.2717,0.2719,0.2626,0.2628,0.2645,0.2754,0.2754,0.2824,0.2834,0.2884,0,0.2933,0,0.2931,0.2937,0.2938,0,0,0,0.2631,0.271,0.2724,0.2629,0.2646,0.2754,0.2701,0.2829,0.2842,0.2898,0.2935,0.2941,0.2934,0.2938,0.2939,0.3266,0.3268,0,0,0.2625,0.2654,0.2716,0.2733,0.2718,0.2697,0.2704,0.2836,0.2878,0.2936,0.2944,0.2937,0.294,0.2941,0.3264,0.3267,0,0,0,0.2616,0.265,0.2661,0.2727,0.2745,0.2701,0.2709,0.2872,0.2873,0.2946,0.2939,0.2941,0.2943,0.3262,0.3265,0.3398,0,0,0,0.2612,0.2645,0.2659,0.2678,0.2743,0.281,0.2743,0.2864,0.2878,0.2938,0.2941,0.2945,0.3259,0.3264,0.339,0.3457,0,0,0,0.2612,0.2645,0.2666,0.2679,0.2728,0.2807,0.2816,0.2866,0.2875,0.2938,0.2946,0.3258,0.3263,0.3382,0.3444,0.3552,0,0,0,0.2621,0.2784,0.2669,0.2849,0.2727,0.2889,0.2814,0.2934,0.3004,0.2942,0.326,0.3265,0.3379,0.3437,0.3544,0.3649,0.3695,0,0,0.2844,0.2812,0.2916,0.2816,0.3006,0.2869,0.3078,0.3115,0.3094,0.321,0.3217,0.3393,0.3444,0.355,0.394,0.3977,0,0,0,0.2996,0.3071,0.3115,0.3182,0.3213,0.3245,0.3246,0.3259,0.3356,0.316,0.3459,0.3488,0.3549,0.3598,0.363,0.3681,0.3288,0.3288,0.3287,0.3356,0.3319,0.3487,0.3463,0.3529,0.3527,0.3577,0.3594,0.3539,0.361,0.3645,0.3886,0.3944,0.3967,0.4021,0.3696,0.3696,0.3697,0.3697,0.368,0.378,0.3699,0.3834,0.3793,0.3906,0.3909,0.3865,0.3963,0.3857,0.3909,0.3798,0.4009,0.4054,0.3707,0.3705,0.3704,0.3703,0.3702,0.3912,0.3954,0.3966,0.4057,0.4132,0.4101,0.4198,0.4158,0.412,0.4171,0.4204,0.4201,0.4195,0.4189,0.419,0.4191,0.4191,0.4192,0.4193,0.415,0.4159,0.4246,0.429,0.4327,0.437,0.4366,0.4401,0.4429,0.4392,0.4392,0.433,0.4036,0.3964,0.4206,0.4203,0.4202,0.42,0.4199,0.4496,0.441,0.4545,0.4582,0.4629,0.4705,0.465,0.4724,0.4746,0.4795,0.472,0.4509,0.4475,0.4449,0.4389,0.4727,0.4727,0.4727,0.4727,0.4693,0.467,0.4798,0.4859,0.4914,0.4877,0.5029,0.5027,0.5012,0.5023,0.4967,0.4883,0.4859,0.4839,0.4806,0.4749,0.5171,0.5171,0.5172,0.4904,0.4884,0.5023,0.5006,0.5038,0.5067,0.5209,0.5281,0.5245,0.5189,0.5031,0.5012,0.4876,0.4834,0.4777,0.4726,0.4621,0,0]}]]